Regional Weather Roundup
Issued by NWS

Home | Current Version | Previous Version | Text Only | Print | Product List | Glossary On
Versions: 1 2 3 4 5 6 7 8 9 10 11 12 13 14 15 16 17 18 19 20 21 22 23 24 25 26 27 28 29 30 31 32 33 34 35 36 37 38 39 40 41 42 43 44 45 46 47 48 49 50
570
ASUS46 KSTO 240015
RWRCA

NORTHERN AND CENTRAL CA REGIONAL WEATHER ROUNDUP
NATIONAL WEATHER SERVICE SACRAMENTO CA
500 PM PDT SUN APR 23 2017

NOTE: FAIR INDICATES FEW OR NO CLOUDS BELOW 12,000 FEET WITH NO
SIGNIFICANT WEATHER AND/OR OBSTRUCTIONS TO VISIBILITY.

CAZ001-003-240100-
NORTHWEST AREA

CITY           SKY/WX    TMP DP  RH WIND       PRES   REMARKS
CRESCENT CITY  CLOUDY    54  48  80 S12       30.06F
UKIAH          SUNNY     63  43  48 W9G18     30.00S
$$

CAZ006-505>513-240100-
BAY AREA

CITY           SKY/WX    TMP DP  RH WIND       PRES   REMARKS
SANTA ROSA     MOSUNNY   68  48  48 W16       29.95R
SAN RAFAEL     N/A       62  MM  MM MISG
NAPA           SUNNY     65  50  58 W22G31    29.97S
CONCORD        SUNNY     67  46  47 W20G25    29.97S
OAKLAND CITY   N/A      MM  MM  MM MISG
OAKLAND        PTSUNNY   64  50  60 W24       30.02S
SAN FRAN CITY  N/A       59  MM  65 MISG
SAN FRAN ARPT  MOSUNNY   60  46  59 W23G35    30.03F
LIVERMORE      SUNNY     62  49  62 W20       29.99F
HAYWARD        MOSUNNY   63  46  54 W17G26    30.02F
REDWOOD CITY   N/A       63  MM  58 MISG
MOFFETT ARPT   SUNNY     65  47  52 W10       30.03S
SAN JOSE ARPT  PTSUNNY   65  48  54 NW16      30.02S
$$
CAZ034-037-514>518-240100-
CENTRAL COAST

CITY           SKY/WX    TMP DP  RH WIND       PRES   REMARKS
WATSONVILLE    MOSUNNY   67  54  63 SW7       29.99F
SALINAS        SUNNY     63  49  60 SW17      30.02F
MONTEREY       SUNNY     61  50  67 W13       30.04F
SAN LUIS OBISP SUNNY     62  50  64 NW24G36   29.94F
SANTA MARIA    MOSUNNY   59  50  72 NW29G38   29.92F
$$
CAZ015-016-240100-
NORTHERN SACRAMENTO VALLEY

CITY           SKY/WX    TMP DP  RH WIND       PRES   REMARKS
REDDING        PTSUNNY   70  45  40 S12       29.88F
RED BLUFF      PTSUNNY   71  46  40 S8        29.91S
OROVILLE       MOSUNNY   72  45  37 S7        29.94R
$$
CAZ016>018-240100-
SOUTHERN SACRAMENTO VALLEY

CITY           SKY/WX    TMP DP  RH WIND       PRES   REMARKS
AUBURN         MOSUNNY   64  43  45 W16G22    29.96R
BEALE AFB      MOSUNNY   70  51  50 S5        29.91S HAZE
LINCOLN        FAIR      72  43  35 S7        29.92F
MARYSVILLE     MOSUNNY   70  49  47 S12       29.92S
SAC INTL ARPT  PTSUNNY   70  53  54 S15       29.91F
MATHER AIRPORT NOT AVBL
DOWNTOWN SAC   N/A       71  MM  MM MISG
SAC EXEC ARPT  SUNNY     68  51  54 SW12G22   29.94S
VACAVILLE      SUNNY     69  50  50 SW15      29.95S
TRAVIS AFB     SUNNY     65  49  56 SW22G32   29.93F
$$
CAZ019>021-240100-
SAN JOAQUIN VALLEY

CITY           SKY/WX    TMP DP  RH WIND       PRES   REMARKS
STOCKTON       MOSUNNY   70  49  47 W17       29.95S
MODESTO        MOSUNNY   72  46  39 NW13      29.94S
MERCED         SUNNY     73  42  32 NW9G16    29.93F
LEMOORE        PTSUNNY   76  27  16 N16       29.91F
FRESNO         MOSUNNY   73  38  27 NW13      29.92F
HANFORD        SUNNY     75  34  22 N12       29.91F
PORTERVILLE      N/A     77  46  33 NW9       29.91F
BAKERSFIELD    SUNNY     77  40  26 NW14G20   29.89F
$$
CAZ011-012-071-240100-
NORTHERN MOUNTAINS

CITY           SKY/WX    TMP DP  RH WIND       PRES   REMARKS
YREKA          CLOUDY    58  37  45 W12       29.92S
MOUNT SHASTA   CLOUDY    57  34  41 CALM      29.90R
ALTURAS        PTSUNNY   57  29  34 W15       29.89S
$$
CAZ011-012-071-240100-
SIERRA NEVADA MTNS

CITY           SKY/WX    TMP DP  RH WIND       PRES   REMARKS
BLUE CANYON    PTSUNNY   50  30  46 S12       30.01F
TRUCKEE        PTSUNNY   54  23  30 SW14      29.97F
TAHOE VLY ARPT PTSUNNY   51  24  34 SW14G29   29.96F
MAMMOTH LAKES  FAIR      57  21  24 W9        29.98R
$$




USA.gov is the U.S. government's official web portal to all federal, state and local government web resources and services.